Time,TemperatureF,DewpointF,PressureIn,WindDirection,WindDirectionDegrees,WindSpeedMPH,WindSpeedGustMPH,Humidity,HourlyPrecipIn,Conditions,Clouds,dailyrainin,SoftwareType,DateUTC
2013-03-08 00:01:00,51.0,15.0,29.99,South,183,0.0,2.0,23,0.00,,,0.00,,2013-03-08 07:01:00,
2013-03-08 00:11:00,51.0,15.0,29.99,South,183,0.0,2.0,23,0.00,,,0.00,,2013-03-08 07:11:00,
2013-03-08 00:22:00,51.0,14.0,30.01,South,184,0.0,1.0,22,0.00,,,0.00,,2013-03-08 07:22:00,
2013-03-08 00:31:00,50.0,15.0,30.01,South,184,0.0,1.0,24,0.00,,,0.00,,2013-03-08 07:31:00,
2013-03-08 00:42:00,50.0,15.0,30.01,South,184,0.0,1.0,24,0.00,,,0.00,,2013-03-08 07:42:00,
2013-03-08 00:52:00,49.0,15.0,30.01,South,184,0.0,1.0,25,0.00,,,0.00,,2013-03-08 07:52:00,
2013-03-08 01:01:00,49.0,15.0,30.01,SE,132,0.0,2.0,25,0.00,,,0.00,,2013-03-08 08:01:00,
2013-03-08 01:11:00,49.0,15.0,30.01,SE,132,0.0,2.0,25,0.00,,,0.00,,2013-03-08 08:11:00,
2013-03-08 01:22:00,48.0,16.0,29.99,SSE,167,0.0,4.0,28,0.00,,,0.00,,2013-03-08 08:22:00,
2013-03-08 01:32:00,45.0,14.0,30.00,South,171,0.0,1.0,28,0.00,,,0.00,,2013-03-08 08:32:00,
2013-03-08 01:42:00,45.0,14.0,30.00,South,171,0.0,1.0,28,0.00,,,0.00,,2013-03-08 08:42:00,
2013-03-08 01:52:00,44.0,15.0,29.99,SSW,198,0.0,1.0,30,0.00,,,0.00,,2013-03-08 08:52:00,
2013-03-08 02:03:00,45.0,15.0,29.98,SW,235,0.0,1.0,30,0.00,,,0.00,,2013-03-08 09:03:00,
2013-03-08 02:11:00,45.0,15.0,29.98,SW,235,0.0,1.0,30,0.00,,,0.00,,2013-03-08 09:11:00,
2013-03-08 02:21:00,45.0,15.0,29.98,SW,235,0.0,1.0,30,0.00,,,0.00,,2013-03-08 09:21:00,
2013-03-08 02:32:00,45.0,15.0,29.97,SW,236,0.0,1.0,29,0.00,,,0.00,,2013-03-08 09:32:00,
2013-03-08 02:42:00,45.0,15.0,29.97,SW,236,0.0,1.0,29,0.00,,,0.00,,2013-03-08 09:42:00,
2013-03-08 02:52:00,45.0,14.0,29.96,WSW,237,0.0,1.0,28,0.00,,,0.00,,2013-03-08 09:52:00,
2013-03-08 03:01:00,45.0,14.0,29.96,WSW,238,0.0,1.0,28,0.00,,,0.00,,2013-03-08 10:01:00,
2013-03-08 03:11:00,45.0,14.0,29.96,WSW,238,0.0,1.0,28,0.00,,,0.00,,2013-03-08 10:11:00,
2013-03-08 03:21:00,43.0,12.0,29.96,WSW,244,0.0,2.0,28,0.00,,,0.00,,2013-03-08 10:21:00,
2013-03-08 03:32:00,42.0,12.0,29.96,WSW,248,0.0,2.0,29,0.00,,,0.00,,2013-03-08 10:32:00,
2013-03-08 03:42:00,42.0,12.0,29.96,WSW,248,0.0,2.0,29,0.00,,,0.00,,2013-03-08 10:42:00,
2013-03-08 03:52:00,42.0,12.0,29.96,WSW,248,0.0,2.0,29,0.00,,,0.00,,2013-03-08 10:52:00,
2013-03-08 04:01:00,44.0,13.0,29.96,WSW,248,2.0,6.0,28,0.00,,,0.00,,2013-03-08 11:01:00,
2013-03-08 04:11:00,44.0,13.0,29.96,WSW,248,2.0,6.0,28,0.00,,,0.00,,2013-03-08 11:11:00,
2013-03-08 04:21:00,40.0,12.0,29.96,NNE,22,0.0,1.0,31,0.00,,,0.00,,2013-03-08 11:21:00,
2013-03-08 04:32:00,40.0,12.0,29.96,North,0,0.0,0.0,31,0.00,,,0.00,,2013-03-08 11:32:00,
2013-03-08 04:42:00,40.0,12.0,29.96,North,0,0.0,0.0,31,0.00,,,0.00,,2013-03-08 11:42:00,
2013-03-08 04:52:00,42.0,13.0,29.96,West,259,0.0,1.0,30,0.00,,,0.00,,2013-03-08 11:52:00,
2013-03-08 05:01:00,43.0,14.0,29.98,North,0,0.0,0.0,30,0.00,,,0.00,,2013-03-08 12:01:00,
2013-03-08 05:11:00,43.0,14.0,29.98,North,0,0.0,0.0,30,0.00,,,0.00,,2013-03-08 12:11:00,
2013-03-08 05:22:00,42.0,13.0,29.98,SW,236,0.0,3.0,30,0.00,,,0.00,,2013-03-08 12:22:00,
2013-03-08 05:32:00,42.0,13.0,29.98,SW,236,0.0,3.0,30,0.00,,,0.00,,2013-03-08 12:32:00,
2013-03-08 05:43:00,42.0,13.0,29.98,SW,236,0.0,3.0,30,0.00,,,0.00,,2013-03-08 12:43:00,
2013-03-08 05:52:00,42.0,14.0,29.98,North,0,0.0,0.0,32,0.00,,,0.00,,2013-03-08 12:52:00,
2013-03-08 06:01:00,42.0,14.0,29.98,North,0,0.0,0.0,32,0.00,,,0.00,,2013-03-08 13:01:00,
2013-03-08 06:11:00,42.0,14.0,29.98,North,0,0.0,0.0,32,0.00,,,0.00,,2013-03-08 13:11:00,
2013-03-08 06:21:00,41.0,13.0,29.98,North,0,0.0,0.0,32,0.00,,,0.00,,2013-03-08 13:21:00,
2013-03-08 06:32:00,41.0,14.0,29.97,North,0,0.0,0.0,33,0.00,,,0.00,,2013-03-08 13:32:00,
2013-03-08 06:42:00,41.0,14.0,29.97,North,0,0.0,0.0,33,0.00,,,0.00,,2013-03-08 13:42:00,
2013-03-08 06:52:00,40.0,13.0,29.97,North,0,0.0,0.0,33,0.00,,,0.00,,2013-03-08 13:52:00,
2013-03-08 07:02:00,40.0,15.0,29.97,ESE,111,0.0,2.0,35,0.00,,,0.00,,2013-03-08 14:02:00,
2013-03-08 07:11:00,40.0,15.0,29.97,ESE,111,0.0,2.0,35,0.00,,,0.00,,2013-03-08 14:11:00,
2013-03-08 07:22:00,39.0,14.0,29.96,North,0,0.0,0.0,35,0.00,,,0.00,,2013-03-08 14:22:00,
2013-03-08 07:32:00,40.0,15.0,29.96,North,0,0.0,0.0,35,0.00,,,0.00,,2013-03-08 14:32:00,
2013-03-08 07:42:00,40.0,15.0,29.96,North,0,0.0,0.0,35,0.00,,,0.00,,2013-03-08 14:42:00,
2013-03-08 07:52:00,44.0,15.0,29.96,ESE,120,0.0,1.0,30,0.00,,,0.00,,2013-03-08 14:52:00,
2013-03-08 08:03:00,45.0,15.0,29.96,North,0,0.0,0.0,29,0.00,,,0.00,,2013-03-08 15:03:00,
2013-03-08 08:11:00,45.0,15.0,29.96,North,0,0.0,0.0,29,0.00,,,0.00,,2013-03-08 15:11:00,
2013-03-08 08:22:00,47.0,15.0,29.96,SSW,194,1.0,4.0,27,0.00,,,0.00,,2013-03-08 15:22:00,
2013-03-08 08:32:00,49.0,16.0,29.96,South,179,1.0,4.0,26,0.00,,,0.00,,2013-03-08 15:32:00,
2013-03-08 08:42:00,49.0,16.0,29.96,South,179,1.0,4.0,26,0.00,,,0.00,,2013-03-08 15:42:00,
2013-03-08 08:53:00,49.0,15.0,29.96,South,188,1.0,3.0,25,0.00,,,0.00,,2013-03-08 15:53:00,
2013-03-08 09:01:00,50.0,16.0,29.96,South,178,2.0,5.0,25,0.00,,,0.00,,2013-03-08 16:01:00,
2013-03-08 09:11:00,50.0,16.0,29.96,South,178,2.0,5.0,25,0.00,,,0.00,,2013-03-08 16:11:00,
2013-03-08 09:22:00,51.0,17.0,29.95,ESE,109,2.0,6.0,26,0.00,,,0.00,,2013-03-08 16:22:00,
2013-03-08 09:32:00,52.0,17.0,29.96,SE,136,1.0,4.0,25,0.00,,,0.00,,2013-03-08 16:32:00,
2013-03-08 09:42:00,52.0,17.0,29.96,SE,136,1.0,4.0,25,0.00,,,0.00,,2013-03-08 16:42:00,
2013-03-08 09:52:00,53.0,17.0,29.96,South,178,2.0,6.0,24,0.00,,,0.00,,2013-03-08 16:52:00,
2013-03-08 10:02:00,56.0,18.0,29.96,SSW,192,5.0,11.0,22,0.00,,,0.00,,2013-03-08 17:02:00,
2013-03-08 10:11:00,56.0,18.0,29.96,SSW,192,5.0,11.0,22,0.00,,,0.00,,2013-03-08 17:11:00,
2013-03-08 10:21:00,56.0,17.0,29.96,South,188,4.0,10.0,21,0.00,,,0.00,,2013-03-08 17:21:00,
2013-03-08 10:32:00,56.0,18.0,29.95,SSE,166,3.0,6.0,22,0.00,,,0.00,,2013-03-08 17:32:00,
2013-03-08 10:42:00,56.0,18.0,29.95,SSE,166,3.0,6.0,22,0.00,,,0.00,,2013-03-08 17:42:00,
2013-03-08 10:52:00,56.0,19.0,29.94,South,187,2.0,8.0,23,0.00,,,0.00,,2013-03-08 17:52:00,
2013-03-08 11:02:00,56.0,19.0,29.94,South,181,2.0,7.0,23,0.00,,,0.00,,2013-03-08 18:02:00,
2013-03-08 11:11:00,56.0,19.0,29.94,South,181,2.0,7.0,23,0.00,,,0.00,,2013-03-08 18:11:00,
2013-03-08 11:21:00,56.0,19.0,29.94,South,181,2.0,7.0,23,0.00,,,0.00,,2013-03-08 18:21:00,
2013-03-08 11:32:00,59.0,19.0,29.92,SSW,195,2.0,9.0,21,0.00,,,0.00,,2013-03-08 18:32:00,
2013-03-08 11:42:00,59.0,19.0,29.92,SSW,195,2.0,9.0,21,0.00,,,0.00,,2013-03-08 18:42:00,
2013-03-08 11:52:00,59.0,19.0,29.91,South,191,4.0,8.0,21,0.00,,,0.00,,2013-03-08 18:52:00,
2013-03-08 12:01:00,58.0,19.0,29.90,South,187,3.0,11.0,22,0.00,,,0.00,,2013-03-08 19:01:00,
2013-03-08 12:11:00,58.0,19.0,29.90,South,187,3.0,11.0,22,0.00,,,0.00,,2013-03-08 19:11:00,
2013-03-08 12:22:00,58.0,20.0,29.88,South,183,4.0,12.0,23,0.00,,,0.00,,2013-03-08 19:22:00,
2013-03-08 12:32:00,58.0,21.0,29.88,South,183,4.0,9.0,24,0.00,,,0.00,,2013-03-08 19:32:00,
2013-03-08 12:42:00,58.0,21.0,29.88,South,183,4.0,9.0,24,0.00,,,0.00,,2013-03-08 19:42:00,
2013-03-08 12:52:00,58.0,21.0,29.87,SSW,192,4.0,10.0,24,0.00,,,0.00,,2013-03-08 19:52:00,
2013-03-08 13:01:00,57.0,24.0,29.86,SSW,208,4.0,12.0,28,0.00,,,0.00,,2013-03-08 20:01:00,
2013-03-08 13:11:00,57.0,24.0,29.86,SSW,208,4.0,12.0,28,0.00,,,0.00,,2013-03-08 20:11:00,
2013-03-08 13:21:00,56.0,25.0,29.85,SW,221,7.0,17.0,30,0.00,,,0.00,,2013-03-08 20:21:00,
2013-03-08 13:32:00,55.0,25.0,29.85,South,188,5.0,16.0,31,0.00,,,0.00,,2013-03-08 20:32:00,
2013-03-08 13:42:00,55.0,25.0,29.85,South,188,5.0,16.0,31,0.00,,,0.00,,2013-03-08 20:42:00,
2013-03-08 13:52:00,55.0,26.0,29.85,SW,222,4.0,10.0,32,0.00,,,0.00,,2013-03-08 20:52:00,
2013-03-08 14:02:00,55.0,26.0,29.85,SW,222,4.0,10.0,32,0.00,,,0.00,,2013-03-08 21:02:00,
2013-03-08 14:11:00,55.0,26.0,29.85,SW,222,4.0,10.0,32,0.00,,,0.00,,2013-03-08 21:11:00,
2013-03-08 14:21:00,51.0,34.0,29.89,SSW,206,7.0,18.0,53,0.00,,,0.00,,2013-03-08 21:21:00,
2013-03-08 14:32:00,46.0,38.0,29.88,SSW,205,3.0,10.0,73,0.01,,,0.01,,2013-03-08 21:32:00,
2013-03-08 14:42:00,46.0,38.0,29.88,SSW,205,3.0,10.0,73,0.01,,,0.01,,2013-03-08 21:42:00,
2013-03-08 14:52:00,46.0,39.0,29.88,SSW,193,2.0,8.0,77,0.01,,,0.01,,2013-03-08 21:52:00,
2013-03-08 15:01:00,46.0,40.0,29.86,SE,127,2.0,8.0,78,0.02,,,0.02,,2013-03-08 22:01:00,
2013-03-08 15:11:00,46.0,40.0,29.86,SE,127,2.0,8.0,78,0.02,,,0.02,,2013-03-08 22:11:00,
2013-03-08 15:22:00,46.0,40.0,29.85,ESE,122,2.0,7.0,79,0.01,,,0.02,,2013-03-08 22:22:00,
2013-03-08 15:32:00,45.0,38.0,29.85,ESE,121,1.0,6.0,77,0.01,,,0.02,,2013-03-08 22:32:00,
2013-03-08 15:42:00,45.0,38.0,29.85,ESE,121,1.0,6.0,77,0.01,,,0.02,,2013-03-08 22:42:00,
2013-03-08 15:53:00,44.0,39.0,29.84,SE,124,2.0,5.0,82,0.01,,,0.02,,2013-03-08 22:53:00,
2013-03-08 16:01:00,46.0,41.0,29.83,ESE,122,2.0,7.0,82,0.00,,,0.02,,2013-03-08 23:01:00,
2013-03-08 16:12:00,46.0,41.0,29.83,ESE,122,2.0,7.0,82,0.00,,,0.02,,2013-03-08 23:12:00,
2013-03-08 16:21:00,46.0,41.0,29.83,ESE,122,2.0,7.0,82,0.00,,,0.02,,2013-03-08 23:21:00,
2013-03-08 16:32:00,47.0,41.0,29.80,SSE,152,3.0,9.0,81,0.00,,,0.02,,2013-03-08 23:32:00,
2013-03-08 16:42:00,47.0,41.0,29.80,SSE,152,3.0,9.0,81,0.00,,,0.02,,2013-03-08 23:42:00,
2013-03-08 16:53:00,48.0,41.0,29.78,SE,137,3.0,12.0,76,0.00,,,0.02,,2013-03-08 23:53:00,
2013-03-08 17:02:00,47.0,40.0,29.77,South,184,5.0,14.0,77,0.00,,,0.02,,2013-03-09 00:02:00,
2013-03-08 17:11:00,47.0,40.0,29.77,South,184,5.0,14.0,77,0.00,,,0.02,,2013-03-09 00:11:00,
2013-03-08 17:22:00,47.0,40.0,29.78,South,181,3.0,12.0,76,0.00,,,0.02,,2013-03-09 00:22:00,
2013-03-08 17:32:00,44.0,36.0,29.80,WNW,289,5.0,10.0,72,0.00,,,0.02,,2013-03-09 00:32:00,
2013-03-08 17:42:00,44.0,36.0,29.80,WNW,289,5.0,10.0,72,0.00,,,0.02,,2013-03-09 00:42:00,
2013-03-08 17:52:00,42.0,36.0,29.79,WNW,285,4.0,14.0,79,0.01,,,0.03,,2013-03-09 00:52:00,
2013-03-08 18:01:00,41.0,36.0,29.79,WSW,243,1.0,5.0,83,0.05,,,0.07,,2013-03-09 01:01:00,
2013-03-08 18:12:00,41.0,36.0,29.79,WSW,243,1.0,5.0,83,0.05,,,0.07,,2013-03-09 01:12:00,
2013-03-08 18:22:00,40.0,36.0,29.78,WSW,257,0.0,1.0,85,0.05,,,0.07,,2013-03-09 01:22:00,
2013-03-08 18:32:00,40.0,36.0,29.78,WSW,257,0.0,1.0,85,0.05,,,0.07,,2013-03-09 01:32:00,
2013-03-08 18:42:00,40.0,36.0,29.78,WSW,257,0.0,1.0,85,0.05,,,0.07,,2013-03-09 01:42:00,
2013-03-08 18:52:00,40.0,36.0,29.78,WSW,237,0.0,2.0,84,0.03,,,0.07,,2013-03-09 01:52:00,
2013-03-08 19:01:00,41.0,36.0,29.78,SW,222,0.0,1.0,83,0.00,,,0.07,,2013-03-09 02:01:00,
2013-03-08 19:11:00,41.0,36.0,29.78,SW,222,0.0,1.0,83,0.00,,,0.07,,2013-03-09 02:11:00,
2013-03-08 19:21:00,41.0,36.0,29.79,SW,236,0.0,1.0,83,0.00,,,0.07,,2013-03-09 02:21:00,
2013-03-08 19:31:00,41.0,37.0,29.79,SW,228,0.0,2.0,86,0.01,,,0.08,,2013-03-09 02:31:00,
2013-03-08 19:41:00,43.0,39.0,29.79,SSW,200,0.0,5.0,85,0.01,,,0.08,,2013-03-09 02:41:00,
2013-03-08 19:51:00,43.0,39.0,29.79,SSW,200,0.0,5.0,85,0.01,,,0.08,,2013-03-09 02:51:00,
2013-03-08 20:01:00,44.0,39.0,29.78,South,171,0.0,3.0,84,0.01,,,0.08,,2013-03-09 03:01:00,
2013-03-08 20:11:00,44.0,39.0,29.78,South,171,0.0,3.0,84,0.01,,,0.08,,2013-03-09 03:11:00,
2013-03-08 20:21:00,43.0,37.0,29.79,South,186,0.0,2.0,79,0.01,,,0.08,,2013-03-09 03:21:00,
2013-03-08 20:31:00,43.0,37.0,29.79,South,186,0.0,2.0,79,0.01,,,0.08,,2013-03-09 03:31:00,
2013-03-08 20:41:00,43.0,37.0,29.79,South,186,0.0,2.0,79,0.01,,,0.08,,2013-03-09 03:41:00,
2013-03-08 20:52:00,42.0,36.0,29.79,SSW,193,1.0,7.0,78,0.00,,,0.08,,2013-03-09 03:52:00,
2013-03-08 21:01:00,42.0,35.0,29.79,SSW,195,2.0,12.0,77,0.00,,,0.08,,2013-03-09 04:01:00,
2013-03-08 21:11:00,42.0,35.0,29.79,SSW,195,2.0,12.0,77,0.00,,,0.08,,2013-03-09 04:11:00,
2013-03-08 21:22:00,42.0,35.0,29.79,SSW,207,2.0,7.0,77,0.00,,,0.08,,2013-03-09 04:22:00,
2013-03-08 21:32:00,42.0,35.0,29.80,SSW,208,4.0,8.0,76,0.00,,,0.08,,2013-03-09 04:32:00,
2013-03-08 21:42:00,42.0,35.0,29.80,SSW,208,4.0,8.0,76,0.00,,,0.08,,2013-03-09 04:42:00,
2013-03-08 21:52:00,42.0,36.0,29.81,SW,223,4.0,10.0,78,0.00,,,0.08,,2013-03-09 04:52:00,
2013-03-08 22:02:00,40.0,35.0,29.81,WSW,249,6.0,11.0,81,0.01,,,0.09,,2013-03-09 05:02:00,
2013-03-08 22:12:00,40.0,35.0,29.81,WSW,249,6.0,11.0,81,0.01,,,0.09,,2013-03-09 05:12:00,
2013-03-08 22:22:00,39.0,34.0,29.80,WSW,244,1.0,8.0,83,0.01,,,0.09,,2013-03-09 05:22:00,
2013-03-08 22:32:00,39.0,34.0,29.80,WSW,244,1.0,8.0,83,0.01,,,0.09,,2013-03-09 05:32:00,
2013-03-08 22:42:00,39.0,34.0,29.80,WSW,244,1.0,8.0,83,0.01,,,0.09,,2013-03-09 05:42:00,
2013-03-08 22:52:00,38.0,34.0,29.80,WSW,241,2.0,5.0,85,0.01,,,0.09,,2013-03-09 05:52:00,
2013-03-08 23:02:00,39.0,35.0,29.80,WSW,241,1.0,4.0,85,0.01,,,0.09,,2013-03-09 06:02:00,
2013-03-08 23:11:00,39.0,35.0,29.79,WSW,250,1.0,3.0,85,0.00,,,0.09,,2013-03-09 06:11:00,
2013-03-08 23:22:00,39.0,35.0,29.79,WSW,250,1.0,3.0,85,0.00,,,0.09,,2013-03-09 06:22:00,
2013-03-08 23:32:00,39.0,35.0,29.80,WSW,237,3.0,13.0,84,0.00,,,0.09,,2013-03-09 06:32:00,
2013-03-08 23:42:00,39.0,35.0,29.80,WSW,237,3.0,13.0,84,0.00,,,0.09,,2013-03-09 06:42:00,
2013-03-08 23:51:00,38.0,34.0,29.81,WSW,245,5.0,13.0,85,0.01,,,0.10,,2013-03-09 06:51:00,